This is the latest recevied weather packets stored in our database for station/object KR4DFQ. If no packets are shown the sender has not sent any weather packets the latest 10 day(s).
| Time | Temp. | Humidity | Pressure | Rain* | Wind** | Luminosity | Snow |
|---|---|---|---|---|---|---|---|
| 1787573325 | 26.67° C | 94% | 1017.3 hPa | 0 mm | - | 112 W/m² | - |
| 1787573021 | 26.11° C | 96% | 1017.1 hPa | 0 mm | - | 102 W/m² | - |
| 1787572717 | 25.56° C | 97% | 1017.3 hPa | 0 mm | - | 86 W/m² | - |
| 1787572412 | 25.56° C | 97% | 1017.4 hPa | 0 mm | - | 67 W/m² | - |
| 1787572107 | 25.56° C | 97% | 1017.4 hPa | 0 mm | - | 51 W/m² | - |
| 1787571806 | 24.44° C | 97% | 1017 hPa | 0 mm | - | 45 W/m² | - |
| 1787571500 | 24.44° C | 97% | 1017 hPa | 0 mm | - | 36 W/m² | - |
| 1787571194 | 23.89° C | 97% | 1017.2 hPa | 0 mm | - | 29 W/m² | - |
| 1787570891 | 23.89° C | 97% | 1017 hPa | 0 mm | - | 24 W/m² | - |
| 1787570586 | 23.89° C | 97% | 1017.3 hPa | 0 mm | - | 19 W/m² | - |
| 1787570283 | 23.89° C | 97% | 1017.2 hPa | 0 mm | - | 15 W/m² | - |
| 1787569978 | 23.33° C | 97% | 1017.1 hPa | 0 mm | - | 11 W/m² | - |
| 1787569675 | 23.33° C | 97% | 1017.1 hPa | 0 mm | - | 8 W/m² | - |
| 1787569369 | 23.33° C | 97% | 1017 hPa | 0 mm | - | 5 W/m² | - |
| 1787569069 | 23.33° C | 97% | 1017 hPa | 0 mm | - | 3 W/m² | - |
| 1787568764 | 23.33° C | 97% | 1017.1 hPa | 0 mm | - | 1 W/m² | - |
| 1787568460 | 23.33° C | 97% | 1017 hPa | 0 mm | - | 1 W/m² | - |
| 1787568157 | 23.89° C | 97% | 1016.9 hPa | 0 mm | - | 0 W/m² | - |
| 1787567851 | 23.89° C | 97% | 1016.6 hPa | 0 mm | - | 0 W/m² | - |
| 1787567546 | 23.33° C | 97% | 1016.5 hPa | 0 mm | - | 0 W/m² | - |
| 1787567245 | 23.33° C | 97% | 1016.7 hPa | 0 mm | - | 0 W/m² | - |
| 1787566943 | 23.33° C | 97% | 1016.7 hPa | 0 mm | - | 0 W/m² | - |
| 1787566639 | 23.33° C | 97% | 1016.6 hPa | 0 mm | - | 0 W/m² | - |
| 1787566334 | 23.33° C | 96% | 1016.6 hPa | 0 mm | - | 0 W/m² | - |
| 1787566030 | 23.89° C | 97% | 1016.4 hPa | 0 mm | - | 0 W/m² | - |
* Rain latest hour (hover to see other rain measurements)
** Current wind speed in m/s (hover to see current wind gust speed)